Time,TemperatureF,DewpointF,PressureIn,WindDirection,WindDirectionDegrees,WindSpeedMPH,WindSpeedGustMPH,Humidity,HourlyPrecipIn,Conditions,Clouds,dailyrainin,SoftwareType,DateUTC
2013-03-25 00:02:00,33.0,29.0,-100.00,East,80,9.0,16.0,84,0.55,,,-99.99,,2013-03-25 04:02:00,
2013-03-25 00:12:00,33.0,30.0,-100.00,East,85,7.0,16.0,88,0.55,,,-99.99,,2013-03-25 04:12:00,
2013-03-25 00:22:00,32.0,30.0,-100.00,East,80,9.0,16.0,92,0.55,,,-99.99,,2013-03-25 04:22:00,
2013-03-25 00:33:00,32.0,30.0,-100.00,East,90,6.0,12.0,94,0.55,,,-99.99,,2013-03-25 04:33:00,
2013-03-25 00:43:00,32.0,31.0,-100.00,East,85,9.0,12.0,95,0.55,,,-99.99,,2013-03-25 04:43:00,
2013-03-25 00:52:00,32.0,31.0,-100.00,ENE,75,6.0,11.0,95,1.10,,,-99.99,,2013-03-25 04:52:00,
2013-03-25 01:03:00,32.0,31.0,-100.00,East,80,6.0,12.0,96,1.10,,,-99.99,,2013-03-25 05:03:00,
2013-03-25 01:12:00,31.0,31.0,-100.00,ENE,75,6.0,10.0,96,5.67,,,-99.99,,2013-03-25 05:12:00,
2013-03-25 01:22:00,31.0,31.0,-100.00,ENE,70,6.0,11.0,96,3.39,,,-99.99,,2013-03-25 05:22:00,
2013-03-25 01:32:00,31.0,31.0,-100.00,NE,35,4.0,9.0,97,1.10,,,-99.99,,2013-03-25 05:32:00,
2013-03-25 01:42:00,31.0,31.0,-100.00,ENE,75,6.0,9.0,97,1.10,,,-99.99,,2013-03-25 05:42:00,
2013-03-25 01:52:00,31.0,31.0,-100.00,ENE,70,3.0,9.0,97,0.55,,,-99.99,,2013-03-25 05:52:00,
2013-03-25 02:02:00,31.0,30.0,-100.00,East,80,6.0,11.0,97,0.55,,,-99.99,,2013-03-25 06:02:00,
2013-03-25 02:12:00,31.0,30.0,-100.00,ENE,75,7.0,11.0,97,0.55,,,-99.99,,2013-03-25 06:12:00,
2013-03-25 02:22:00,31.0,30.0,-100.00,East,80,6.0,14.0,97,1.10,,,-99.99,,2013-03-25 06:22:00,
2013-03-25 02:32:00,31.0,30.0,-100.00,East,80,6.0,11.0,97,1.10,,,-99.99,,2013-03-25 06:32:00,
2013-03-25 02:42:00,31.0,30.0,-100.00,ENE,75,5.0,11.0,97,0.00,,,-99.99,,2013-03-25 06:42:00,
2013-03-25 02:52:00,31.0,30.0,-100.00,East,85,6.0,9.0,97,0.00,,,-99.99,,2013-03-25 06:52:00,
2013-03-25 03:02:00,31.0,30.0,-100.00,East,80,6.0,10.0,97,0.55,,,-99.99,,2013-03-25 07:02:00,
2013-03-25 03:12:00,31.0,30.0,-100.00,East,80,6.0,12.0,97,0.00,,,-99.99,,2013-03-25 07:12:00,
2013-03-25 03:22:00,31.0,30.0,-100.00,ENE,75,4.0,9.0,97,0.00,,,-99.99,,2013-03-25 07:22:00,
2013-03-25 03:32:00,31.0,30.0,-100.00,East,90,4.0,8.0,97,0.00,,,-99.99,,2013-03-25 07:32:00,
2013-03-25 03:42:00,31.0,30.0,-100.00,East,80,4.0,7.0,97,0.00,,,-99.99,,2013-03-25 07:42:00,
2013-03-25 03:52:00,31.0,30.0,-100.00,ENE,75,7.0,9.0,97,0.00,,,-99.99,,2013-03-25 07:52:00,
2013-03-25 04:03:00,31.0,30.0,-100.00,ESE,105,4.0,9.0,97,0.00,,,-99.99,,2013-03-25 08:03:00,
2013-03-25 04:12:00,31.0,30.0,-100.00,East,90,5.0,7.0,97,0.00,,,-99.99,,2013-03-25 08:12:00,
2013-03-25 04:23:00,31.0,30.0,-100.00,East,95,3.0,9.0,98,0.00,,,-99.99,,2013-03-25 08:23:00,
2013-03-25 04:32:00,31.0,30.0,-100.00,East,100,4.0,6.0,98,0.00,,,-99.99,,2013-03-25 08:32:00,
2013-03-25 04:43:00,31.0,30.0,-100.00,ENE,75,4.0,6.0,98,0.00,,,-99.99,,2013-03-25 08:43:00,
2013-03-25 04:52:00,31.0,31.0,-100.00,South,170,3.0,6.0,98,0.00,,,-99.99,,2013-03-25 08:52:00,
2013-03-25 05:02:00,31.0,31.0,-100.00,East,90,2.0,4.0,98,0.00,,,-99.99,,2013-03-25 09:02:00,
2013-03-25 05:12:00,31.0,31.0,-100.00,SE,125,2.0,4.0,98,0.00,,,-99.99,,2013-03-25 09:12:00,
2013-03-25 05:22:00,31.0,31.0,-100.00,SE,125,3.0,4.0,98,0.00,,,-99.99,,2013-03-25 09:22:00,
2013-03-25 05:33:00,31.0,31.0,-100.00,SE,130,2.0,4.0,98,0.00,,,-99.99,,2013-03-25 09:33:00,
2013-03-25 05:43:00,31.0,31.0,-100.00,SE,135,4.0,5.0,98,0.00,,,-99.99,,2013-03-25 09:43:00,
2013-03-25 05:52:00,31.0,31.0,-100.00,SE,140,2.0,6.0,98,0.00,,,-99.99,,2013-03-25 09:52:00,
2013-03-25 06:03:00,31.0,31.0,-100.00,SSE,160,2.0,4.0,98,0.00,,,-99.99,,2013-03-25 10:03:00,
2013-03-25 06:12:00,31.0,31.0,-100.00,SSE,165,1.0,3.0,98,0.00,,,-99.99,,2013-03-25 10:12:00,
2013-03-25 06:22:00,31.0,31.0,-100.00,South,170,3.0,4.0,98,0.00,,,-99.99,,2013-03-25 10:22:00,
2013-03-25 06:33:00,31.0,31.0,-100.00,SSE,165,2.0,4.0,98,0.00,,,-99.99,,2013-03-25 10:33:00,
2013-03-25 06:42:00,31.0,31.0,-100.00,South,175,4.0,4.0,98,0.00,,,-99.99,,2013-03-25 10:42:00,
2013-03-25 06:53:00,31.0,31.0,-100.00,South,180,4.0,6.0,98,0.00,,,-99.99,,2013-03-25 10:53:00,
2013-03-25 07:03:00,31.0,31.0,-100.00,South,180,4.0,6.0,98,0.00,,,-99.99,,2013-03-25 11:03:00,
2013-03-25 07:12:00,31.0,31.0,-100.00,South,185,4.0,6.0,98,0.00,,,-99.99,,2013-03-25 11:12:00,
2013-03-25 07:23:00,32.0,31.0,-100.00,South,190,7.0,7.0,98,0.00,,,-99.99,,2013-03-25 11:23:00,
2013-03-25 07:32:00,32.0,31.0,-100.00,SSW,195,6.0,8.0,98,0.00,,,-99.99,,2013-03-25 11:32:00,
2013-03-25 07:42:00,32.0,31.0,-100.00,SSW,200,6.0,8.0,98,0.00,,,-99.99,,2013-03-25 11:42:00,
2013-03-25 07:52:00,32.0,31.0,-100.00,SW,215,7.0,9.0,98,0.00,,,-99.99,,2013-03-25 11:52:00,
2013-03-25 08:03:00,32.0,31.0,-100.00,SW,220,6.0,9.0,98,0.00,,,-99.99,,2013-03-25 12:03:00,
2013-03-25 08:13:00,32.0,31.0,-100.00,SSW,205,6.0,10.0,98,0.00,,,-99.99,,2013-03-25 12:13:00,
2013-03-25 08:23:00,32.0,31.0,-100.00,SSW,205,7.0,9.0,98,0.00,,,-99.99,,2013-03-25 12:23:00,
2013-03-25 08:32:00,32.0,31.0,-100.00,SSW,200,6.0,9.0,98,0.00,,,-99.99,,2013-03-25 12:32:00,
2013-03-25 08:42:00,32.0,31.0,-100.00,SSW,210,6.0,7.0,98,0.00,,,-99.99,,2013-03-25 12:42:00,
2013-03-25 08:53:00,32.0,31.0,-100.00,SW,215,6.0,9.0,98,0.00,,,-99.99,,2013-03-25 12:53:00,
2013-03-25 09:03:00,32.0,31.0,-100.00,SSW,210,7.0,9.0,98,0.00,,,-99.99,,2013-03-25 13:03:00,
2013-03-25 09:13:00,32.0,31.0,-100.00,SW,225,6.0,9.0,98,0.00,,,-99.99,,2013-03-25 13:13:00,
2013-03-25 09:22:00,32.0,31.0,-100.00,SW,230,6.0,11.0,98,0.00,,,-99.99,,2013-03-25 13:22:00,
2013-03-25 09:32:00,31.0,31.0,-100.00,SW,225,6.0,9.0,98,0.00,,,-99.99,,2013-03-25 13:32:00,
2013-03-25 09:42:00,31.0,31.0,-100.00,SW,220,6.0,7.0,98,0.00,,,-99.99,,2013-03-25 13:42:00,
2013-03-25 09:52:00,32.0,31.0,-100.00,SW,225,4.0,6.0,98,0.00,,,-99.99,,2013-03-25 13:52:00,
2013-03-25 10:03:00,32.0,31.0,-100.00,SSW,210,5.0,7.0,98,0.00,,,-99.99,,2013-03-25 14:03:00,
2013-03-25 10:12:00,31.0,31.0,-100.00,SW,215,6.0,9.0,98,0.00,,,-99.99,,2013-03-25 14:12:00,
2013-03-25 10:22:00,31.0,31.0,-100.00,SW,215,5.0,9.0,98,0.00,,,-99.99,,2013-03-25 14:22:00,
2013-03-25 10:32:00,31.0,31.0,-100.00,SW,230,6.0,-999.0,98,0.00,,,-99.99,,2013-03-25 14:32:00,
2013-03-25 10:42:00,32.0,31.0,-100.00,SW,230,5.0,9.0,98,0.00,,,-99.99,,2013-03-25 14:42:00,
2013-03-25 10:52:00,32.0,31.0,-100.00,SW,220,7.0,11.0,98,0.00,,,-99.99,,2013-03-25 14:52:00,
2013-03-25 11:03:00,32.0,31.0,-100.00,SW,220,6.0,11.0,98,0.00,,,-99.99,,2013-03-25 15:03:00,
2013-03-25 11:13:00,32.0,31.0,-100.00,SW,230,6.0,9.0,98,0.00,,,-99.99,,2013-03-25 15:13:00,
2013-03-25 11:23:00,32.0,31.0,-100.00,SSW,205,6.0,9.0,98,0.00,,,-99.99,,2013-03-25 15:23:00,
2013-03-25 11:33:00,32.0,31.0,-100.00,SW,230,6.0,8.0,97,0.00,,,-99.99,,2013-03-25 15:33:00,
2013-03-25 11:42:00,32.0,31.0,-100.00,SW,235,4.0,7.0,97,0.00,,,-99.99,,2013-03-25 15:42:00,
2013-03-25 11:53:00,32.0,31.0,-100.00,SW,225,6.0,9.0,97,0.00,,,-99.99,,2013-03-25 15:53:00,
2013-03-25 12:03:00,32.0,31.0,-100.00,WSW,245,6.0,7.0,96,0.00,,,-99.99,,2013-03-25 16:03:00,
2013-03-25 12:12:00,32.0,31.0,-100.00,WSW,250,5.0,7.0,96,0.00,,,-99.99,,2013-03-25 16:12:00,
2013-03-25 12:23:00,32.0,31.0,-100.00,West,265,2.0,6.0,96,0.00,,,-99.99,,2013-03-25 16:23:00,
2013-03-25 12:33:00,33.0,31.0,-100.00,West,275,2.0,6.0,95,0.00,,,-99.99,,2013-03-25 16:33:00,
2013-03-25 12:43:00,32.0,31.0,-100.00,West,280,3.0,7.0,95,0.00,,,-99.99,,2013-03-25 16:43:00,
2013-03-25 12:52:00,32.0,31.0,-100.00,WSW,255,3.0,6.0,94,0.00,,,-99.99,,2013-03-25 16:52:00,
2013-03-25 13:03:00,32.0,31.0,-100.00,West,265,4.0,6.0,94,0.00,,,-99.99,,2013-03-25 17:03:00,
2013-03-25 13:12:00,32.0,31.0,-100.00,West,260,4.0,7.0,94,0.00,,,-99.99,,2013-03-25 17:12:00,
2013-03-25 13:23:00,32.0,31.0,-100.00,WSW,250,6.0,7.0,94,0.00,,,-99.99,,2013-03-25 17:23:00,
2013-03-25 13:33:00,33.0,31.0,-100.00,WSW,250,4.0,6.0,93,0.00,,,-99.99,,2013-03-25 17:33:00,
2013-03-25 13:42:00,33.0,31.0,-100.00,WSW,255,3.0,6.0,93,0.00,,,-99.99,,2013-03-25 17:42:00,
2013-03-25 13:52:00,33.0,31.0,-100.00,WSW,240,4.0,6.0,93,0.00,,,-99.99,,2013-03-25 17:52:00,
2013-03-25 14:03:00,33.0,31.0,-100.00,SW,230,4.0,7.0,92,0.00,,,-99.99,,2013-03-25 18:03:00,
2013-03-25 14:12:00,33.0,31.0,-100.00,West,260,5.0,7.0,92,0.00,,,-99.99,,2013-03-25 18:12:00,
2013-03-25 14:23:00,33.0,31.0,-100.00,WSW,240,5.0,7.0,92,0.00,,,-99.99,,2013-03-25 18:23:00,
2013-03-25 14:33:00,33.0,31.0,-100.00,West,265,4.0,6.0,92,0.00,,,-99.99,,2013-03-25 18:33:00,
2013-03-25 14:42:00,33.0,31.0,-100.00,WSW,255,4.0,6.0,92,0.00,,,-99.99,,2013-03-25 18:42:00,
2013-03-25 14:52:00,33.0,31.0,-100.00,West,260,4.0,6.0,90,0.00,,,-99.99,,2013-03-25 18:52:00,
2013-03-25 15:03:00,33.0,30.0,-100.00,West,275,4.0,7.0,89,0.00,,,-99.99,,2013-03-25 19:03:00,
2013-03-25 15:13:00,33.0,30.0,-100.00,West,270,2.0,7.0,89,0.00,,,-99.99,,2013-03-25 19:13:00,
2013-03-25 15:23:00,33.0,30.0,-100.00,WSW,255,4.0,7.0,90,0.00,,,-99.99,,2013-03-25 19:23:00,
2013-03-25 15:33:00,33.0,31.0,-100.00,West,275,4.0,6.0,91,0.00,,,-99.99,,2013-03-25 19:33:00,
2013-03-25 15:42:00,33.0,31.0,-100.00,West,275,4.0,6.0,91,0.00,,,-99.99,,2013-03-25 19:42:00,
2013-03-25 15:52:00,33.0,31.0,-100.00,West,260,2.0,6.0,92,0.00,,,-99.99,,2013-03-25 19:52:00,
2013-03-25 16:02:00,33.0,31.0,-100.00,West,275,2.0,6.0,93,0.00,,,-99.99,,2013-03-25 20:02:00,
2013-03-25 16:12:00,33.0,31.0,-100.00,West,265,2.0,5.0,93,0.00,,,-99.99,,2013-03-25 20:12:00,
2013-03-25 16:22:00,33.0,31.0,-100.00,WNW,290,2.0,6.0,92,0.00,,,-99.99,,2013-03-25 20:22:00,
2013-03-25 16:32:00,33.0,31.0,-100.00,WNW,300,6.0,7.0,93,0.00,,,-99.99,,2013-03-25 20:32:00,
2013-03-25 16:42:00,33.0,31.0,-100.00,NW,315,4.0,8.0,92,0.00,,,-99.99,,2013-03-25 20:42:00,
2013-03-25 16:52:00,33.0,31.0,-100.00,WNW,300,4.0,9.0,91,0.00,,,-99.99,,2013-03-25 20:52:00,
2013-03-25 17:03:00,33.0,31.0,-100.00,NW,310,6.0,9.0,91,0.00,,,-99.99,,2013-03-25 21:03:00,
2013-03-25 17:12:00,33.0,31.0,-100.00,NW,310,8.0,10.0,90,0.00,,,-99.99,,2013-03-25 21:12:00,
2013-03-25 17:22:00,33.0,31.0,-100.00,NW,310,8.0,10.0,90,0.00,,,-99.99,,2013-03-25 21:22:00,
2013-03-25 17:33:00,33.0,31.0,-100.00,NW,320,7.0,12.0,90,0.00,,,-99.99,,2013-03-25 21:33:00,
2013-03-25 17:43:00,33.0,31.0,-100.00,NW,315,9.0,12.0,91,0.00,,,-99.99,,2013-03-25 21:43:00,
2013-03-25 17:52:00,33.0,31.0,-100.00,NW,315,9.0,12.0,91,0.00,,,-99.99,,2013-03-25 21:52:00,
2013-03-25 18:03:00,33.0,31.0,-100.00,NW,315,9.0,11.0,92,0.00,,,-99.99,,2013-03-25 22:03:00,
2013-03-25 18:12:00,33.0,31.0,-100.00,NW,315,8.0,12.0,92,0.00,,,-99.99,,2013-03-25 22:12:00,
2013-03-25 18:23:00,33.0,31.0,-100.00,NW,320,7.0,11.0,93,0.00,,,-99.99,,2013-03-25 22:23:00,
2013-03-25 18:33:00,33.0,31.0,-100.00,NW,315,10.0,12.0,93,0.00,,,-99.99,,2013-03-25 22:33:00,
2013-03-25 18:42:00,33.0,31.0,-100.00,NW,315,9.0,12.0,93,0.00,,,-99.99,,2013-03-25 22:42:00,
2013-03-25 18:52:00,33.0,31.0,-100.00,NW,325,7.0,11.0,94,0.00,,,-99.99,,2013-03-25 22:52:00,
2013-03-25 19:03:00,32.0,31.0,-100.00,NW,320,7.0,11.0,94,0.00,,,-99.99,,2013-03-25 23:03:00,
2013-03-25 19:12:00,32.0,31.0,-100.00,NW,320,7.0,11.0,94,0.00,,,-99.99,,2013-03-25 23:12:00,
2013-03-25 19:23:00,33.0,31.0,-100.00,NW,325,8.0,12.0,93,0.00,,,-99.99,,2013-03-25 23:23:00,
2013-03-25 19:32:00,33.0,30.0,-100.00,NNW,335,9.0,13.0,92,0.00,,,-99.99,,2013-03-25 23:32:00,
2013-03-25 19:43:00,32.0,30.0,-100.00,NW,320,9.0,13.0,91,0.00,,,-99.99,,2013-03-25 23:43:00,
2013-03-25 19:53:00,32.0,30.0,-100.00,NW,320,9.0,12.0,91,0.00,,,-99.99,,2013-03-25 23:53:00,
2013-03-25 20:02:00,32.0,30.0,-100.00,NNW,340,7.0,14.0,91,0.00,,,-99.99,,2013-03-26 00:02:00,
2013-03-25 20:12:00,32.0,30.0,-100.00,NW,325,5.0,9.0,92,0.00,,,-99.99,,2013-03-26 00:12:00,
2013-03-25 20:22:00,32.0,30.0,-100.00,NW,325,9.0,12.0,93,0.00,,,-99.99,,2013-03-26 00:22:00,
2013-03-25 20:32:00,32.0,30.0,-100.00,NW,320,9.0,16.0,93,0.00,,,-99.99,,2013-03-26 00:32:00,
2013-03-25 20:42:00,32.0,30.0,-100.00,NW,320,7.0,13.0,94,0.55,,,-99.99,,2013-03-26 00:42:00,
2013-03-25 20:52:00,31.0,30.0,-100.00,NNW,330,8.0,12.0,95,0.00,,,-99.99,,2013-03-26 00:52:00,
2013-03-25 21:02:00,31.0,30.0,-100.00,NW,320,9.0,12.0,95,0.00,,,-99.99,,2013-03-26 01:02:00,
2013-03-25 21:12:00,31.0,30.0,-100.00,NNW,330,9.0,12.0,95,0.00,,,-99.99,,2013-03-26 01:12:00,
2013-03-25 21:23:00,31.0,30.0,-100.00,NW,325,9.0,12.0,95,0.00,,,-99.99,,2013-03-26 01:23:00,
2013-03-25 21:32:00,31.0,30.0,-100.00,NW,325,9.0,12.0,95,0.00,,,-99.99,,2013-03-26 01:32:00,
2013-03-25 21:42:00,31.0,30.0,-100.00,NNW,340,7.0,13.0,95,0.00,,,-99.99,,2013-03-26 01:42:00,
2013-03-25 21:52:00,31.0,30.0,-100.00,NNW,335,9.0,14.0,95,0.00,,,-99.99,,2013-03-26 01:52:00,
2013-03-25 22:02:00,31.0,30.0,-100.00,NNW,335,9.0,12.0,93,0.00,,,-99.99,,2013-03-26 02:02:00,
2013-03-25 22:12:00,32.0,30.0,-100.00,NNW,340,10.0,15.0,92,0.00,,,-99.99,,2013-03-26 02:12:00,
2013-03-25 22:22:00,32.0,29.0,-100.00,NNW,345,7.0,14.0,91,0.00,,,-99.99,,2013-03-26 02:22:00,
2013-03-25 22:32:00,32.0,29.0,-100.00,NNW,340,8.0,12.0,90,0.00,,,-99.99,,2013-03-26 02:32:00,
2013-03-25 22:42:00,32.0,29.0,-100.00,NNW,345,9.0,13.0,90,0.00,,,-99.99,,2013-03-26 02:42:00,
2013-03-25 22:52:00,32.0,29.0,-100.00,NNW,340,9.0,13.0,91,0.00,,,-99.99,,2013-03-26 02:52:00,
2013-03-25 23:02:00,32.0,29.0,-100.00,NNW,335,9.0,15.0,91,0.00,,,-99.99,,2013-03-26 03:02:00,
2013-03-25 23:12:00,32.0,30.0,-100.00,NNW,340,11.0,14.0,92,0.00,,,-99.99,,2013-03-26 03:12:00,
2013-03-25 23:22:00,31.0,29.0,-100.00,NNW,340,11.0,14.0,93,0.00,,,-99.99,,2013-03-26 03:22:00,
2013-03-25 23:34:00,31.0,29.0,-100.00,NNW,340,11.0,14.0,93,0.00,,,-99.99,,2013-03-26 03:34:00,
2013-03-25 23:42:00,31.0,29.0,-100.00,NNW,340,9.0,16.0,91,0.00,,,-99.99,,2013-03-26 03:42:00,
2013-03-25 23:52:00,32.0,29.0,-100.00,NNW,345,9.0,16.0,91,0.00,,,-99.99,,2013-03-26 03:52:00,